Home   Weather   Monza   Past weeks

Flag for Italy Past Weather in Monza, Italy — Yesterday and Last 2 Weeks

Now
57 °F

Fog.


Feels Like: 57 °F
Forecast: 55 / 76 °F
Wind: No wind

Location: Milan / Linate

Current Time: Sep 27, 2016 at 7:30:52 AM

Latest Report: Sep 27, 2016 at 6:50 AM


Visibility: 6 mi

Pressure: 30.18 "Hg

Humidity: 88%

Dew Point: 54 °F

Location of MonzaLocation

Past Weather in Monza — Graph

°F

Monza Temperature Yesterday

Maximum temperature yesterday: 77 °F (at 1:50 PM)
Minimum temperature yesterday: 55 °F (at 4:50 AM)
Average temperature yesterday: 66 °F

High & Low Weather Summary for the Past Weeks

 TemperatureHumidityPressure
High90 °F (Sep 13, 5:20 PM)100% (Sep 15, 10:50 AM)30.33 "Hg (Sep 15, 10:50 AM)
Low54 °F (Sep 25, 5:50 AM)23% (Sep 19, 5:50 PM)29.77 "Hg (Sep 18, 5:50 PM)
Average69 °F65%30.01 "Hg
* Reported Sep 12 6:20 AM — Sep 27 6:20 AM, Monza, Weather by CustomWeather, © 2016

Note: Actual official high and low records may vary slightly from our data, if they occured in-between our weather recording intervals... More about our weather records

Advertising

Monza Weather History for the Previous 24 Hours

Scroll right to see more
 ConditionsComfort  
Time TempWeatherWind HumidityBarometerVisibility
6:20 AM
Tue, Sep 27
57 °FClear.No wind88%30.18 "Hg6 mi
5:50 AM57 °FClear.No wind88%30.18 "Hg6 mi
5:20 AM59 °FClear.1 mph82%30.18 "Hg6 mi
4:50 AM61 °FClear.3 mph77%30.18 "Hg6 mi
4:20 AM61 °FClear.3 mph77%30.15 "Hg6 mi
3:50 AM61 °FClear.3 mph77%30.15 "Hg6 mi
3:20 AM61 °FPassing clouds.5 mph77%30.15 "HgN/A
2:50 AM61 °FPassing clouds.5 mph77%30.15 "HgN/A
2:20 AM61 °FClear.6 mph77%30.15 "Hg10 mi
1:50 AM61 °FPassing clouds.7 mph77%30.15 "HgN/A
1:20 AM63 °FPassing clouds.6 mph73%30.15 "HgN/A
12:50 AM63 °FClear.6 mph73%30.15 "Hg10 mi
12:20 AM63 °FClear.5 mph73%30.15 "Hg10 mi
11:50 PM
Mon, Sep 26
63 °FClear.3 mph73%30.15 "Hg10 mi
11:20 PM63 °FPassing clouds.3 mph68%30.15 "HgN/A
10:50 PM64 °FPassing clouds.3 mph64%30.15 "HgN/A
10:20 PM66 °FPassing clouds.5 mph60%30.15 "HgN/A
9:50 PM68 °FPassing clouds.5 mph56%30.15 "HgN/A
9:20 PM68 °FClear.6 mph60%30.12 "Hg10 mi
8:50 PM70 °FPassing clouds.3 mph57%30.12 "HgN/A
8:20 PM70 °FPassing clouds.3 mph57%30.12 "HgN/A
7:50 PM72 °FPassing clouds.3 mph53%30.12 "HgN/A
7:20 PM72 °FPassing clouds.3 mph53%30.12 "HgN/A
6:50 PM73 °FPassing clouds.5 mph47%30.09 "HgN/A
6:20 PM75 °FPassing clouds.6 mph41%30.09 "HgN/A
5:50 PM75 °FPassing clouds.7 mph41%30.09 "HgN/A
5:20 PM77 °FPassing clouds.7 mph39%30.09 "HgN/A
4:50 PM77 °FPassing clouds.6 mph42%30.09 "HgN/A
4:20 PM77 °FPassing clouds.7 mph39%30.09 "HgN/A
3:50 PM77 °FSunny.5 mph39%30.09 "Hg10 mi
3:20 PM77 °FPassing clouds.6 mph39%30.09 "HgN/A
2:50 PM77 °FSunny.3 mph39%30.09 "Hg10 mi
2:20 PM77 °FSunny.6 mph39%30.09 "Hg10 mi
1:50 PM77 °FSunny.3 mph42%30.12 "Hg10 mi
1:20 PM75 °FSunny.3 mph41%30.12 "Hg10 mi
12:50 PM75 °FSunny.3 mph44%30.12 "Hg10 mi
12:20 PM73 °FSunny.3 mph50%30.12 "Hg10 mi
11:50 AM72 °FSunny.5 mph53%30.12 "Hg10 mi
11:20 AM70 °FPassing clouds.3 mph57%30.12 "HgN/A
10:50 AM70 °FPassing clouds.5 mph60%30.12 "HgN/A
10:20 AM68 °FSunny.3 mph64%30.12 "Hg10 mi
9:50 AM66 °FSunny.2 mph68%30.12 "Hg10 mi
9:20 AM64 °FSunny.2 mph73%30.12 "Hg10 mi
8:50 AM63 °FSunny.2 mph77%30.12 "Hg10 mi
8:20 AM61 °FSunny.2 mph83%30.09 "Hg10 mi
7:50 AM59 °FClear.3 mph88%30.09 "Hg5 mi
7:20 AM55 °FFog.2 mph94%30.09 "Hg5 mi
Weather by CustomWeather, © 2016

See weather overviewHow to use our weather pages